FW3318 Weather Reports


Display with metric or nautical units.
time (UTC)temp
F
wind
direction
speed
MPH
gust
MPH
rain 1hr
in
rain 24hr
in
rain mn
in
humidity
%
barometer
mb
20260505152509 37 50 0.0 0.0 0.00 0.00 0.00 93 999.5
20260505152010 37 50 0.0 0.0 0.00 0.00 0.00 92 999.5
20260505151510 36 50 0.0 0.0 0.00 0.00 0.00 92 999.4
20260505151007 36 50 0.0 0.0 0.00 0.00 0.00 92 999.5
20260505150507 36 50 0.0 0.0 0.00 0.00 0.00 92 999.5
20260505140600 36 50 0.0 0.0 0.00 0.00 0.00 92 999.3
20260505140121 36 50 0.0 0.0 0.00 0.00 0.00 92 999.3
20260505124558 36 9 0.0 0.0 0.00 0.00 0.00 89 999.0
20260505124049 36 9 0.0 0.0 0.00 0.00 0.00 89 998.9
20260505123548 36 9 0.0 0.0 0.00 0.00 0.00 89 998.8
20260505123048 36 9 0.0 0.0 0.00 0.00 0.00 87 998.8
20260505122545 37 9 0.0 0.0 0.00 0.00 0.00 88 999.0
20260505122045 37 9 0.0 0.0 0.00 0.00 0.00 88 998.9
20260505121544 38 9 0.0 0.0 0.00 0.00 0.00 88 999.0
20260505121043 38 9 0.0 0.0 0.00 0.00 0.00 88 999.0
20260505120542 38 9 0.0 0.0 0.00 0.00 0.00 87 999.0
20260505120048 39 9 0.0 0.0 0.00 0.00 0.00 87 999.0
20260505115538 39 9 0.0 0.0 0.00 0.00 0.00 87 998.8
20260505115039 39 9 0.0 0.0 0.00 0.00 0.00 87 998.8
20260505114537 39 9 0.0 0.0 0.00 0.00 0.00 87 999.0
20260505114037 39 9 0.0 0.0 0.00 0.00 0.00 86 998.9
20260505113635 40 9 0.0 0.0 0.00 0.00 0.00 86 999.1
20260505113035 40 9 0.0 0.0 0.00 0.00 0.00 85 999.2
20260505112536 40 9 0.0 0.0 0.00 0.00 0.00 84 999.2
20260505112031 41 9 0.0 0.0 0.00 0.00 0.00 84 999.2
20260505111531 41 10 0.0 0.0 0.00 0.00 0.00 84 999.1
20260505111029 41 10 0.0 0.0 0.00 0.00 0.00 84 999.1
20260505110532 41 10 0.0 0.0 0.00 0.00 0.00 84 999.1
20260505102027 43 10 0.0 0.0 0.00 0.00 0.00 82 999.5
20260505101526 43 9 0.0 0.0 0.00 0.00 0.00 82 999.5
20260505101022 43 9 0.0 0.0 0.00 0.00 0.00 82 999.5
20260505100522 43 9 0.0 0.0 0.00 0.00 0.00 82 999.5
20260505100024 43 9 0.0 2.0 0.00 0.00 0.00 82 999.6
20260505095522 43 9 0.0 2.0 0.00 0.00 0.00 82 999.6
20260505095021 43 9 1.0 2.0 0.00 0.00 0.00 81 999.6
20260505094526 43 9 1.0 2.0 0.00 0.00 0.00 81 999.7
20260505094018 43 46 0.0 0.0 0.00 0.00 0.00 81 999.8
20260505093519 43 46 0.0 0.0 0.00 0.00 0.00 81 999.9
20260505093017 43 46 0.0 0.0 0.00 0.00 0.00 81 1000.0
20260505092517 43 46 0.0 0.0 0.00 0.00 0.00 81 1000.0
20260505092018 43 46 0.0 0.0 0.00 0.00 0.00 81 1000.1
20260505091516 43 46 0.0 0.0 0.00 0.00 0.00 81 1000.2
20260505091014 43 46 0.0 0.0 0.00 0.00 0.00 82 1000.4
20260505090514 43 46 0.0 0.0 0.00 0.00 0.00 82 1000.5
20260505090014 43 46 0.0 0.0 0.00 0.00 0.00 82 1000.5
20260505085517 43 46 0.0 0.0 0.00 0.00 0.00 82 1000.5
20260505085016 43 46 0.0 0.0 0.00 0.00 0.00 82 1000.5
20260505084517 43 46 0.0 0.0 0.00 0.00 0.00 82 1000.7
20260505084011 43 46 0.0 0.0 0.00 0.00 0.00 81 1000.7
20260505083510 43 46 0.0 0.0 0.00 0.00 0.00 81 1000.7
20260505083009 44 46 0.0 0.0 0.00 0.00 0.00 81 1000.8
20260505082508 44 46 0.0 0.0 0.00 0.00 0.00 80 1000.9
20260505082007 44 46 0.0 0.0 0.00 0.00 0.00 79 1000.9
20260505081507 45 46 0.0 0.0 0.00 0.00 0.00 78 1000.9
20260505081005 45 46 0.0 0.0 0.00 0.00 0.00 77 1001.0
20260505080503 45 46 0.0 0.0 0.00 0.00 0.00 76 1001.1
20260505080002 46 46 0.0 0.0 0.00 0.00 0.00 76 1001.1
20260505075502 46 46 0.0 0.0 0.00 0.00 0.00 75 1001.2
20260505075003 46 46 0.0 0.0 0.00 0.00 0.00 75 1001.2
20260505074600 47 46 0.0 0.0 0.00 0.00 0.00 74 1001.3
20260505074100 47 46 0.0 0.0 0.00 0.00 0.00 74 1001.5
20260505073600 47 46 0.0 0.0 0.00 0.00 0.00 73 1001.6
20260505073104 47 46 0.0 0.0 0.00 0.00 0.00 73 1001.5
20260505072559 48 46 0.0 0.0 0.00 0.00 0.00 72 1001.5
20260505072059 48 46 0.0 0.0 0.00 0.00 0.00 72 1001.5
20260505071559 48 46 0.0 0.0 0.00 0.00 0.00 72 1001.5
20260505071100 48 46 0.0 0.0 0.00 0.00 0.00 71 1001.5
20260505070558 49 46 0.0 0.0 0.00 0.00 0.00 71 1001.6
20260505070058 49 46 0.0 0.0 0.00 0.00 0.00 70 1001.6
20260505065556 50 46 0.0 0.0 0.00 0.00 0.00 68 1001.8
20260505065057 50 46 0.0 0.0 0.00 0.00 0.00 68 1001.6
20260505064600 50 46 0.0 0.0 0.00 0.00 0.00 67 1001.8
20260505064055 50 46 0.0 1.0 0.00 0.00 0.00 67 1001.9
20260505063555 51 46 0.0 2.0 0.00 0.00 0.00 67 1002.0
20260505063112 51 46 0.0 3.0 0.00 0.00 0.00 66 1001.9
20260505062556 51 46 1.0 3.0 0.00 0.00 0.00 65 1001.9
20260505062053 51 107 0.0 4.0 0.00 0.00 0.00 65 1002.1
20260505061556 51 96 1.0 4.0 0.00 0.00 0.00 65 1002.1
20260505061052 51 96 1.0 6.0 0.00 0.00 0.00 65 1002.1
20260505060552 51 86 1.0 8.0 0.00 0.00 0.00 64 1002.3
20260505060054 52 73 1.0 8.0 0.00 0.00 0.00 64 1002.3
20260505055553 52 54 2.0 6.0 0.00 0.00 0.00 64 1002.4
20260505055053 52 50 2.0 5.0 0.00 0.00 0.00 64 1002.4
20260505054607 52 71 2.0 5.0 0.00 0.00 0.00 64 1002.4
20260505054053 52 10 1.0 4.0 0.00 0.00 0.00 64 1002.3
20260505053550 52 34 2.0 5.0 0.00 0.00 0.00 64 1002.4
20260505053058 52 36 2.0 5.0 0.00 0.00 0.00 64 1002.4
20260505052550 52 13 1.0 4.0 0.00 0.00 0.00 64 1002.4
20260505052048 53 5 1.0 6.0 0.00 0.00 0.00 64 1002.8
20260505051548 53 341 2.0 6.0 0.00 0.00 0.00 63 1003.1
20260505051047 53 36 1.0 5.0 0.00 0.00 0.00 63 1002.9
20260505050548 53 351 2.0 5.0 0.00 0.00 0.00 62 1002.8
20260505041551 53 10 0.0 0.0 0.00 0.00 0.00 68 1004.1
20260505041039 53 10 0.0 0.0 0.00 0.00 0.00 68 1004.2
20260505040539 53 355 0.0 0.0 0.00 0.00 0.00 68 1004.3
20260505040049 53 355 0.0 0.0 0.00 0.00 0.00 68 1004.4
20260505035537 53 355 0.0 2.0 0.00 0.00 0.00 68 1004.4
20260505035036 53 355 0.0 2.0 0.00 0.00 0.00 68 1004.6
20260505034535 53 355 0.0 2.0 0.00 0.00 0.00 69 1004.6
20260505034037 53 313 0.0 0.0 0.00 0.00 0.00 70 1004.8
20260505033534 53 313 0.0 0.0 0.00 0.00 0.00 70 1004.9
20260505033033 53 310 0.0 0.0 0.00 0.00 0.00 69 1005.2
20260505032533 53 310 0.0 0.0 0.00 0.00 0.00 69 1005.2
20260505032031 53 310 0.0 0.0 0.00 0.00 0.00 69 1005.4
20260505031540 53 310 0.0 0.0 0.00 0.00 0.00 68 1005.4
20260505031032 53 310 0.0 0.0 0.00 0.00 0.00 69 1005.5
20260505030531 53 310 0.0 3.0 0.00 0.00 0.00 67 1005.6
20260505030030 53 310 0.0 3.0 0.00 0.00 0.00 66 1005.7
20260505025530 52 310 1.0 3.0 0.00 0.00 0.00 67 1005.7
20260505025028 52 313 1.0 4.0 0.00 0.00 0.00 67 1005.8
20260505024530 53 313 2.0 4.0 0.00 0.00 0.00 68 1005.9
20260505024028 53 318 2.0 3.0 0.00 0.00 0.00 66 1005.9
20260505023526 53 314 2.0 3.0 0.00 0.00 0.00 65 1006.2
20260505023026 53 321 1.0 5.0 0.00 0.00 0.00 64 1006.3
20260505022526 53 321 2.0 5.0 0.00 0.00 0.00 64 1006.4
20260505022025 53 312 0.0 3.0 0.00 0.00 0.00 66 1006.4
20260505021524 53 312 1.0 3.0 0.00 0.00 0.00 64 1006.6
20260505021023 53 312 1.0 3.0 0.00 0.00 0.00 62 1006.9
20260505020522 53 305 2.0 3.0 0.00 0.00 0.00 63 1006.9
20260505020022 54 305 1.0 3.0 0.00 0.00 0.00 63 1007.1
20260505015521 54 305 1.0 3.0 0.00 0.00 0.00 62 1007.2
20260505015020 54 305 1.0 3.0 0.00 0.00 0.00 61 1007.2
20260505014524 54 313 1.0 3.0 0.00 0.00 0.00 60 1007.4
20260505014018 55 313 0.0 3.0 0.00 0.00 0.00 59 1007.5
20260505013517 55 313 1.0 3.0 0.00 0.00 0.00 59 1007.5
20260505013017 55 313 1.0 3.0 0.00 0.00 0.00 58 1007.6
20260505012517 55 313 1.0 5.0 0.00 0.00 0.00 58 1007.7
20260505012017 55 313 2.0 5.0 0.00 0.00 0.00 57 1007.7
20260505011517 55 322 2.0 5.0 0.00 0.00 0.00 57 1007.7
20260505011017 55 323 2.0 4.0 0.00 0.00 0.00 57 1007.8
20260505010515 55 54 1.0 4.0 0.00 0.00 0.00 57 1008.0
20260505010021 55 319 1.0 4.0 0.00 0.00 0.00 57 1007.9
20260505005514 55 319 0.0 4.0 0.00 0.00 0.00 57 1008.0
20260505005114 55 323 1.0 4.0 0.00 0.00 0.00 58 1008.0
20260505004513 55 321 2.0 5.0 0.00 0.00 0.00 58 1008.1
20260505004013 55 331 2.0 5.0 0.00 0.00 0.00 57 1008.2
20260505003513 55 332 1.0 4.0 0.00 0.00 0.00 57 1008.3
20260505003011 55 324 1.0 3.0 0.00 0.00 0.00 57 1008.4
20260505002511 55 14 1.0 3.0 0.00 0.00 0.00 57 1008.4
20260505002010 55 315 1.0 3.0 0.00 0.00 0.00 57 1008.5
20260505001509 55 329 1.0 4.0 0.00 0.00 0.00 57 1008.6
20260505001008 55 333 1.0 4.0 0.00 0.00 0.00 57 1008.6
20260505000507 55 326 1.0 4.0 0.00 0.00 0.00 57 1008.8
20260505000009 55 320 2.0 4.0 0.00 0.00 0.00 56 1009.0
20260504235507 55 299 1.0 4.0 0.00 0.00 0.00 57 1009.0
20260504235004 55 312 0.0 4.0 0.00 0.00 0.00 56 1009.0
20260504234503 55 323 0.0 6.0 0.00 0.00 0.00 56 1009.2
20260504234002 55 325 1.0 6.0 0.00 0.00 0.00 58 1009.3
20260504233504 54 332 2.0 4.0 0.00 0.00 0.00 58 1009.4
20260504233002 54 317 1.0 4.0 0.00 0.00 0.00 57 1009.4
20260504232501 54 332 1.0 4.0 0.00 0.00 0.00 58 1009.6
20260504232100 54 30 1.0 3.0 0.00 0.00 0.00 58 1009.7
20260504231604 54 29 1.0 3.0 0.00 0.00 0.00 58 1009.8
20260504231059 54 324 1.0 4.0 0.00 0.00 0.00 57 1010.0
20260504230557 54 323 2.0 5.0 0.00 0.00 0.00 56 1010.1
20260504230057 54 101 2.0 5.0 0.00 0.00 0.00 56 1010.3
20260504225555 55 87 0.0 2.0 0.00 0.00 0.00 57 1010.3
20260504225053 55 63 0.0 4.0 0.00 0.00 0.00 58 1010.4
20260504224558 54 63 2.0 4.0 0.00 0.00 0.00 58 1010.6
20260504224051 54 192 0.0 0.0 0.00 0.00 0.00 57 1010.7
20260504223550 54 99 0.0 5.0 0.00 0.00 0.00 57 1010.8
20260504223107 54 67 1.0 8.0 0.00 0.00 0.00 57 1011.0
20260504222549 54 103 2.0 8.0 0.00 0.00 0.00 57 1011.1
20260504222049 54 98 4.0 8.0 0.00 0.00 0.00 58 1011.2
20260504221547 54 102 1.0 6.0 0.00 0.00 0.00 57 1011.2
20260504221049 54 45 1.0 4.0 0.00 0.00 0.00 58 1011.4
20260504220546 54 65 1.0 6.0 0.00 0.00 0.00 59 1011.4
20260504220046 54 32 2.0 6.0 0.00 0.00 0.00 58 1011.5
20260504215544 54 24 1.0 5.0 0.00 0.00 0.00 58 1011.5
20260504215043 54 98 1.0 5.0 0.00 0.00 0.00 58 1011.7
20260504214543 54 80 2.0 7.0 0.00 0.00 0.00 58 1011.8
20260504214046 54 95 3.0 6.0 0.00 0.00 0.00 58 1011.7
20260504213543 54 74 2.0 5.0 0.00 0.00 0.00 59 1011.9
20260504213053 54 36 2.0 5.0 0.00 0.00 0.00 59 1011.9
20260504212543 54 41 2.0 9.0 0.00 0.00 0.00 59 1011.9
20260504212041 54 5 2.0 9.0 0.00 0.00 0.00 59 1011.9
20260504211541 54 134 1.0 9.0 0.00 0.00 0.00 59 1012.1
20260504211040 54 13 2.0 6.0 0.00 0.00 0.00 60 1012.3
20260504210539 54 355 4.0 7.0 0.00 0.00 0.00 60 1012.4
20260504210041 54 20 3.0 7.0 0.00 0.00 0.00 59 1012.5
20260504205538 53 83 1.0 6.0 0.00 0.00 0.00 60 1012.5
20260504205040 53 44 2.0 8.0 0.00 0.00 0.00 60 1012.5
20260504204544 53 127 2.0 8.0 0.00 0.00 0.00 61 1012.5
20260504204035 53 20 2.0 7.0 0.00 0.00 0.00 62 1012.5
20260504203533 52 50 1.0 5.0 0.00 0.00 0.00 63 1012.6
20260504203038 52 76 2.0 6.0 0.00 0.00 0.00 62 1012.6
20260504202532 52 321 3.0 6.0 0.00 0.00 0.00 64 1012.7
20260504202034 52 311 2.0 10.0 0.00 0.00 0.00 63 1012.9
20260504201531 52 34 1.0 10.0 0.00 0.00 0.00 63 1012.9
20260504201032 52 42 2.0 5.0 0.00 0.00 0.00 63 1013.0
20260504200530 52 335 1.0 6.0 0.00 0.00 0.00 63 1013.1
20260504200031 52 28 2.0 6.0 0.00 0.00 0.00 64 1013.3
20260504195527 52 355 1.0 6.0 0.00 0.00 0.00 63 1013.3
20260504195027 52 94 2.0 6.0 0.00 0.00 0.00 64 1013.4
20260504194525 51 50 3.0 5.0 0.00 0.00 0.00 64 1013.4
20260504194023 51 89 1.0 8.0 0.00 0.00 0.00 66 1013.6
20260504193524 51 319 3.0 8.0 0.00 0.00 0.00 65 1013.7
20260504193020 50 355 1.0 5.0 0.00 0.00 0.00 65 1013.7
20260504192520 50 15 2.0 5.0 0.00 0.00 0.00 67 1014.0
20260504192019 50 321 2.0 5.0 0.00 0.00 0.00 65 1013.9
20260504191517 50 15 3.0 6.0 0.00 0.00 0.00 66 1014.1
20260504191017 49 28 2.0 6.0 0.00 0.00 0.00 66 1014.2
20260504190514 49 5 2.0 6.0 0.00 0.00 0.00 67 1014.1
20260504190015 48 73 3.0 7.0 0.00 0.00 0.00 67 1014.3
20260504185510 48 20 0.0 0.0 0.00 0.00 0.00 67 1014.3
20260504185009 47 355 0.0 0.0 0.00 0.00 0.00 68 1014.3
20260504184507 47 46 0.0 0.0 0.00 0.00 0.00 68 1014.3
20260504184007 46 69 0.0 0.0 0.00 0.00 0.00 69 1014.3
20260504183507 46 82 0.0 2.0 0.00 0.00 0.00 69 1014.5
20260504183104 45 65 0.0 2.0 0.00 0.00 0.00 69 1014.5
20260504182502 45 65 0.0 2.0 0.00 0.00 0.00 70 1014.5
20260504182100 44 65 0.0 2.0 0.00 0.00 0.00 70 1014.7
20260504181604 44 5 0.0 0.0 0.00 0.00 0.00 70 1014.8
20260504181058 44 5 0.0 0.0 0.00 0.00 0.00 71 1014.9
20260504180557 44 61 0.0 0.0 0.00 0.00 0.00 72 1015.1
20260504180056 43 61 0.0 0.0 0.00 0.00 0.00 71 1015.2
20260504175553 43 61 0.0 0.0 0.00 0.00 0.00 71 1015.3
20260504175053 43 61 0.0 0.0 0.00 0.00 0.00 71 1015.3
20260504174557 42 61 0.0 0.0 0.00 0.00 0.00 71 1015.3
20260504174050 42 61 0.0 0.0 0.00 0.00 0.00 72 1015.4
20260504173548 42 61 0.0 0.0 0.00 0.00 0.00 71 1015.4
20260504173047 42 61 0.0 0.0 0.00 0.00 0.00 72 1015.4
20260504172546 41 61 0.0 0.0 0.00 0.00 0.00 72 1015.5
20260504172046 41 61 0.0 0.0 0.00 0.00 0.00 73 1015.5
20260504171548 41 61 0.0 0.0 0.00 0.00 0.00 74 1015.6
20260504171044 41 61 0.0 0.0 0.00 0.00 0.00 74 1015.7
20260504170542 40 61 0.0 0.0 0.00 0.00 0.00 74 1015.6